CAPE
36 9 13 6 0 0 0 0 0 0 0 0 0 0 0 0 0 0 0 0 0 0 0 10 5 0 0 4 8 1 0 0 0 0 0 0 0 1
29 3 2 0 0 0 0 0 0 0 0 0 0 0 0 0 0 0 0 0 0 0 0 0 0 0 0 0 1 0 0 0 0 0 0 0 0 0
1 0 12 0 0 0 0 0 0 0 0 0 0 0 0 0 0 0 0 0 0 0 0 0 0 0 0 0 0 0 0 0 0 2 2 2 2 1
5 18 0 0 0 0 0 0 0 0 0 0 0 0 0 0 0 0 0 0 0 0 0 0 0 0 0 0 0 0 0 0 0 3 7 4 3 2
10 13 0 0 0 0 0 0 0 0 0 0 0 0 0 0 0 0 0 0 0 0 0 0 0 0 0 0 0 0 0 0 0 0 5 11 5 3
0 0 0 0 0 0 0 0 0 0 0 0 0 0 0 0 0 0 0 0 0 0 0 0 0 0 0 0 0 0 0 0 0 0 0 0 0 3
0 0 0 0 0 0 0 0 0 0 0 0 0 0 0 0 0 0 0 0 0 0 0 0 4 4 1 0 0 0 0 0 0 0 0 0 0 0
0 0 0 0 0 0 0 0 0 0 0 0 0 0 0 0 0 0 0 0 0 0 0 0 0 0 0 0 0 0 0 0 0 0 0 0 0 0
0 0 0 0 0 0 0 0 0 0 0 0 0 0 0 0 0 0 0 0 0 0 0 0 1 4 1 0 0 0 0 0 0 0 0 0 0 0
0 0 0 0 0 0 0 0 0 0 0 0 0 0 0 0 0 0 0 0 0 0 0 0 0 1 0 0 0 0 0 0 0 0 0 0 0 0
0 0 0 0 0 0 0 0 0 0 0 0 0 0 0 0 0 0 0 0 0 0 0 0 0 0 0 0 0 3 3 2 0 0 0 0 0 0
0 0 0 0 0 0 0 0 0 0 0 0 0 0 0 0 0 0 0 0 0 0 0 0 0 0 0 0 0 0 4 10 9 6 12 12 13 2
0 0 0 0 0 1 0 0 0 0 0 0 0 0 0 0 0 0 0 0 0 0 0 0 0 0 0 0 0 0 0 0 4 8 17 18 19 7
0 0 0 0 1 0 0 0 0 0 0 0 0 0 0 0 0 0 0 0 0 0 0 0 0 0 0 0 0 0 0 0 0 0 0 9 25 23
0 0 0 0 0 0 0 0 0 0 0 1 0 0 0 0 0 0 0 0 0 0 0 0 0 0 0 0 0 0 0 0 0 0 0 0 0 0
0 0 0 0 0 0 0 0 0 0 0 0 0 0 0 0 0 0 0 0 0 0 0 0 0 0 0 0 0 0 0 1 0 1 0 0 0 0
0 1 2 1 0 1 0 0 0 0 0 0 0 0 0 0 0 0 0 0 0 0 0 0 0 0 0 0 0 0 0 0 0 0 0 1 0 1
0 1 1 1 1 1 1 0 0 0 0 0 0 0 0 0 0 0 0 0 0 0 0 0 0 0 0 0 0 0 0 2 1 0 0 0 1 4
1 1 0 0 0 0 0 0 0 0 0 0 0 0 0 0 0 0 0 0 0 0 0 0 0 0 1 1 0 1 0 2 0 1 0 1 5 3
0 0 0 0 0 0 0 0 0 0 0 0 0 0 0 0 0 0 0 0 0 0 0 0 1 0 1 1 0 0 0 0 5 2 4 3 3 0
1 1 1 1 1 0 0 0 0 0 0 0 0 0 0 0 0 0 0 0 1 1 2 2 1 3 0 0 2 1 1 0 1 3 6 7 1 0
1 1 2 2 3 4 3 3 2 1 1 1 0 0 0 0 0 0 0 0 0 0 0 0 0 0 2 6 5 7 0 0 0 0 0 2 10 0
1 1 1 2 2 3 5 4 4 4 3 3 3 3 3 3 3 2 3 2 3 4 4 5 3 5 5 4 5 7 4 2 1 0 3 4 2 0
CIN
-4 -64 -18 -22 0 0 0 0 0 0 0 0 0 0 0 0 0 0 0 0 0 0 0 -8 -22 0 0 -5 -2 -1 0 0 0 0 0 0 0 0
-13 -99 -4 -10 0 0 0 0 0 0 0 0 0 0 0 0 0 0 0 0 0 0 0 0 0 0 0 0 -3 0 0 0 0 0 0 0 0 0
-3 0 -10 -3 0 0 0 0 0 0 0 0 0 0 0 0 0 0 0 0 0 0 0 0 0 0 0 0 0 0 0 0 0 0 0 0 0 0
-26 -22 -1 0 0 0 0 0 0 0 0 0 0 0 0 0 0 0 0 0 0 0 0 0 0 0 0 0 0 0 0 0 0 0 0 0 0 0
-32 -31 0 0 0 0 0 0 0 0 0 0 0 0 0 0 0 0 0 0 0 0 0 0 0 0 0 0 0 0 0 0 0 0 -3 -1 0 0
0 0 0 0 0 0 0 0 0 0 0 0 0 0 0 0 0 0 0 0 0 0 0 0 0 0 0 0 0 0 0 0 0 0 0 0 -1 -1
0 0 0 0 0 0 0 0 0 0 0 0 0 0 0 0 0 0 0 0 0 0 0 0 0 0 0 0 0 0 0 0 0 0 0 0 0 0
0 0 0 0 0 0 0 0 0 0 0 0 0 0 0 0 0 0 0 0 0 0 0 0 0 0 -1 0 0 0 0 0 0 0 0 0 0 0
0 0 0 0 0 0 0 0 0 0 0 0 0 0 0 0 0 0 0 0 0 0 0 0 0 0 0 0 0 0 0 0 0 0 0 0 0 0
0 0 0 0 0 0 0 0 0 0 0 0 0 0 0 0 0 0 0 0 0 0 0 0 0 0 0 0 0 0 0 0 0 0 0 0 0 0
0 0 0 0 0 0 0 0 0 0 0 0 0 0 0 0 0 0 0 0 0 0 0 0 0 0 0 0 0 0 0 -1 0 0 0 0 0 0
0 0 0 0 0 0 0 0 0 0 0 0 0 0 0 0 0 0 0 0 0 0 0 0 0 0 0 0 0 0 0 0 0 0 0 -1 -1 0
0 0 0 0 0 0 0 0 0 0 0 0 0 0 0 0 0 0 0 0 0 0 0 0 0 0 0 0 0 0 0 0 0 0 0 0 0 -1
0 0 0 0 0 0 0 0 0 0 0 0 0 0 0 0 0 0 0 0 0 0 0 0 0 0 0 0 0 0 0 0 0 0 0 0 0 0
0 0 0 0 0 0 0 0 0 0 0 0 0 0 0 0 0 0 0 0 0 0 0 0 0 0 0 0 0 0 0 0 0 0 0 0 0 -1
0 0 0 0 0 0 0 0 0 0 0 0 0 0 0 0 0 0 0 0 0 0 0 0 0 0 0 0 0 0 0 0 0 0 -1 0 0 0
0 0 0 0 0 0 0 0 0 0 0 0 0 0 0 0 0 0 0 0 0 0 0 0 0 0 0 0 0 0 0 0 0 0 0 0 -1 0
0 0 0 0 0 0 0 0 0 0 0 0 0 0 0 0 0 0 0 0 0 0 0 0 0 0 0 0 0 0 0 0 0 0 0 0 0 0
0 0 0 0 0 0 0 0 0 0 0 0 0 0 0 0 0 0 0 0 0 0 0 0 0 0 0 0 0 0 0 0 0 0 0 0 0 0
0 0 0 0 0 0 0 0 0 0 0 0 0 0 0 0 0 0 0 0 0 0 0 0 0 0 0 0 0 0 0 0 0 0 0 0 0 0
0 0 0 0 0 0 0 0 0 0 0 0 0 0 0 0 0 0 0 0 0 0 0 0 0 0 0 0 0 0 -1 0 -1 0 0 0 0 0
0 0 0 0 0 0 0 0 0 0 0 0 0 0 0 0 0 0 0 0 0 0 0 0 0 0 0 0 0 0 0 0 0 0 0 0 0 0
0 0 0 0 0 0 0 0 0 0 0 0 0 0 0 0 0 0 0 0 0 0 0 0 0 0 0 0 0 0 0 0 0 0 0 0 0 0
Wind_Speed
13 13 11 9 8 7 6 6 1 1 2 4 5 8 8 7 8 9 9 9 10 10 9 10 10 9 4 5 7 7 5 3 2 2 2 3 5 5
11 13 13 9 6 6 7 6 3 3 4 2 4 3 6 5 6 10 10 7 10 11 10 9 10 10 8 7 10 10 8 7 7 7 6 6 6 6
12 15 15 14 9 8 7 6 5 5 6 3 2 5 5 7 7 8 8 9 8 11 11 10 12 12 10 9 12 13 12 10 10 10 9 8 8 7
13 15 16 10 14 12 9 8 7 7 6 9 5 5 5 5 5 8 7 8 9 10 13 12 14 13 12 12 12 13 13 12 11 11 10 10 9 8
16 16 14 15 15 9 9 9 7 6 7 6 6 3 3 3 3 4 8 8 8 7 11 12 14 14 13 13 13 13 13 12 10 9 8 9 10 10
15 16 14 16 14 12 10 10 8 8 8 7 7 5 3 3 4 4 6 7 8 8 8 9 12 13 14 14 14 14 12 12 12 10 10 9 8 8
13 13 13 13 13 11 8 10 9 8 8 7 7 6 5 4 6 5 7 6 8 8 8 7 8 9 8 13 10 13 14 14 14 14 11 10 8 7
11 10 9 9 9 11 13 10 11 11 10 8 8 8 11 6 6 7 6 4 5 8 8 8 7 7 7 7 13 13 16 15 15 14 13 12 10 8
11 10 9 7 11 11 12 11 11 12 10 10 11 11 9 10 9 9 10 8 7 4 9 8 8 9 7 6 12 15 16 17 17 16 14 12 12 11
10 11 11 12 12 10 9 10 11 10 12 7 9 7 8 5 8 7 10 9 0 3 7 6 3 7 4 4 13 15 16 18 19 17 16 15 14 13
8 9 9 8 10 12 9 9 9 7 6 11 9 5 4 7 7 4 3 3 2 3 5 3 3 2 2 3 5 17 17 18 20 20 18 17 16 14
6 6 9 8 11 12 8 7 6 6 5 3 3 6 7 8 15 9 6 4 3 1 5 6 3 3 2 2 3 5 8 18 19 19 19 18 17 8
6 5 5 10 12 12 11 9 7 5 6 4 4 4 4 5 5 7 7 6 4 4 5 4 3 3 1 1 0 2 4 5 7 11 20 18 18 14
4 3 4 10 9 10 8 6 7 5 3 3 3 3 3 3 3 3 3 2 1 2 7 6 3 3 3 2 2 1 2 2 2 3 6 12 20 20
4 7 9 8 8 6 5 6 6 3 3 3 3 3 2 2 4 4 4 5 4 3 3 5 2 3 2 2 3 2 3 3 5 4 3 4 6 7
10 7 8 9 8 7 4 2 2 3 3 3 2 3 3 2 2 2 2 1 2 1 4 2 4 3 2 1 2 3 3 3 3 5 5 6 6 6
8 6 5 4 5 4 4 4 4 4 3 2 2 2 2 2 2 1 2 1 1 2 2 1 2 2 2 3 3 4 3 2 4 4 4 6 6 8
7 6 6 5 5 4 5 5 5 5 3 3 3 2 2 2 2 2 2 1 2 2 2 2 2 1 1 3 8 3 4 4 4 5 3 4 7 7
8 6 6 5 5 5 5 4 3 3 3 4 3 3 3 2 2 1 1 1 1 1 1 2 2 2 2 3 2 13 5 4 3 4 5 6 6 5
7 7 6 5 5 5 5 5 5 4 5 4 4 4 4 2 1 2 1 1 1 1 1 1 2 3 2 1 1 1 10 4 4 6 4 5 5 5
7 7 6 6 6 5 5 5 6 5 5 4 4 4 3 2 2 2 2 2 2 1 1 1 1 4 2 1 2 3 3 14 9 4 2 4 5 5
6 6 6 6 6 5 6 5 5 6 6 5 5 4 4 3 3 3 2 2 2 1 1 1 1 1 1 3 6 6 6 2 3 12 10 8 3 4
6 6 6 6 6 5 5 5 5 5 5 4 4 4 3 4 3 3 3 2 1 1 1 1 0 2 3 4 7 6 5 6 4 6 7 17 18 16
Wind_Direction
196 187 206 205 196 181 166 199 224 177 198 176 206 211 205 212 203 202 211 204 222 235 256 242 172 180 179 243 179 168 179 180 206 200 138 99 108 112
193 189 197 196 191 181 175 195 207 234 257 167 190 159 200 205 199 212 208 193 221 235 242 239 194 184 191 223 168 161 189 198 211 209 198 177 167 158
189 191 205 203 200 192 188 193 180 189 234 182 191 178 179 200 201 217 213 209 219 222 238 237 203 193 191 197 176 173 186 202 220 220 212 203 198 184
195 194 201 199 208 204 196 200 202 200 220 243 194 193 203 204 206 205 216 223 219 205 219 224 209 198 191 192 187 185 187 198 212 229 221 213 209 203
190 203 196 193 205 197 198 205 205 204 215 229 227 183 167 182 179 216 218 222 228 229 220 226 214 205 195 193 195 195 195 198 207 222 228 219 214 210
195 199 197 194 202 194 196 203 204 209 216 221 230 207 200 157 215 212 216 221 225 224 229 234 221 212 202 200 200 201 198 200 204 207 208 203 205 216
194 199 200 195 196 193 187 199 195 202 215 208 217 215 193 193 202 198 230 212 227 222 221 214 219 217 212 210 209 206 201 203 204 199 196 190 183 200
188 191 191 180 185 189 192 191 189 195 207 208 209 214 224 211 192 203 209 186 239 199 218 225 206 215 211 203 207 208 202 207 205 203 197 199 203 207
186 182 184 188 190 197 201 196 200 205 209 206 210 213 216 201 199 205 203 206 219 147 208 238 197 227 210 207 205 199 201 204 206 203 202 204 211 210
191 186 184 187 190 186 191 200 211 209 219 219 223 243 225 209 200 207 214 223 193 150 204 222 137 229 199 194 209 207 206 205 202 203 206 205 211 210
188 185 179 178 173 173 180 188 199 218 201 207 224 215 188 165 149 129 166 143 192 221 200 162 193 179 193 217 217 219 219 213 208 207 211 212 208 206
177 181 173 177 164 177 183 181 198 212 187 195 213 235 226 219 183 193 165 187 147 223 199 188 155 150 244 219 205 207 216 219 212 212 215 216 209 201
172 176 183 186 177 186 195 180 198 150 190 195 199 202 180 189 189 203 187 188 163 220 178 158 165 161 178 132 268 228 219 228 226 220 215 215 212 210
163 141 155 174 169 183 189 187 189 160 166 181 183 195 189 190 185 191 176 174 157 182 166 168 166 164 149 148 196 182 208 226 238 224 203 211 220 225
118 121 122 125 125 140 164 195 197 182 169 167 189 191 175 141 99 84 62 83 69 59 175 177 129 142 148 153 160 188 166 215 213 222 206 193 210 211
98 94 94 92 87 86 83 99 129 154 162 155 138 97 85 62 81 83 104 121 103 82 29 120 149 139 145 180 154 163 195 215 184 215 218 230 227 225
101 100 98 84 83 81 72 59 58 62 80 82 97 104 99 91 97 105 87 83 103 145 138 60 67 86 71 159 198 204 180 216 207 196 200 225 233 234
84 85 75 65 70 73 75 68 49 59 59 82 80 86 96 105 103 80 86 131 136 164 149 139 118 91 8 264 215 197 215 228 213 196 205 221 244 233
90 85 83 80 72 67 69 62 64 41 56 67 82 89 103 80 105 117 116 107 125 131 139 137 151 178 197 239 307 213 226 207 194 209 212 214 247 246
80 85 82 80 73 71 67 68 61 53 58 60 60 64 69 84 77 95 105 98 97 126 128 130 182 198 221 247 295 324 214 238 219 236 218 227 253 303
83 81 78 77 76 74 73 69 69 66 63 62 55 59 54 65 69 72 79 121 126 112 169 226 206 219 124 68 266 259 239 219 230 217 202 219 232 239
79 80 72 68 64 64 71 69 67 61 62 61 59 58 55 57 61 55 51 45 39 16 351 63 94 103 191 236 267 276 272 268 246 233 242 237 204 234
76 79 76 70 61 61 65 73 75 68 54 55 56 54 51 57 49 50 44 41 34 1 341 313 215 195 245 255 267 274 270 272 277 260 248 233 241 257